Fort Lewis, WA
on Friday, February 15, 2013

Friday
Previous Day Next Day
Daily Summary
 ActualAverage (KOLM)Record (KOLM)
Temperature
Mean Temperature °F 41°F  
Max Temperature 53°F 49°F 62°F (1996)
Min Temperature 36°F 33°F 10°F (1956)
Degree Days
Heating Degree Days 20 24  
Month to date heating degree days 361  
Since 1 July heating degree days 3412  
Cooling Degree Days 0 0  
Month to date cooling degree days 0  
Year to date cooling degree days 0  
Moisture
Dew Point 42°F   
Average Humidity 92    
Maximum Humidity 100    
Minimum Humidity 65    
Precipitation
Precipitation 0.00 in 0.17 in 2.18 in (1970)
Month to date precipitation 2.96  
Year to date precipitation 10.80  
Wind
Wind Speed 3 mph   
Max Wind Speed 9 mph   
Max Gust Speed mph   
Visibility 10 miles   
Events     

Key: T is trace of precipitation, MM is missing value
Source: NWS Daily Summary
Time(PST)TemperatureDew PointHumidity Pressure Visibility Wind DirectionWind SpeedGust SpeedPrecipitationEvents Conditions
12:52 AM 44.6°F 44.6°F 100% 30.53 in 10.0 miles SE 3.5 mph - N/A   Overcast
12:58 AM 45.5°F 45.1°F 99% 30.55 in 10.0 miles SE 2.3 mph - N/A   Overcast
1:03 AM 46.4°F 44.6°F 93% 30.53 in 10.0 miles SE 2.3 mph - N/A   Overcast
1:58 AM 45.5°F 45.3°F 99% 30.54 in 10.0 miles SE 2.3 mph - N/A   Overcast
2:28 AM 46.4°F 44.6°F 93% 30.51 in 10.0 miles SE 2.3 mph - N/A   Overcast
2:53 AM 46.4°F 44.6°F 93% 30.51 in 10.0 miles SE 2.3 mph - N/A   Overcast
2:58 AM 45.5°F 45.3°F 99% 30.53 in 10.0 miles SE 3.5 mph - N/A   Overcast
3:03 AM 44.6°F 44.6°F 100% 30.50 in 10.0 miles SE 2.3 mph - N/A   Overcast
3:58 AM 45.3°F 45.1°F 99% 30.51 in 10.0 miles SE 1.2 mph - N/A   Overcast
4:08 AM 44.6°F 44.6°F 100% 30.49 in 10.0 miles SE 2.3 mph - N/A   Overcast
4:28 AM 44.6°F 44.6°F 100% 30.48 in 9.0 miles SE 1.2 mph - N/A   Overcast
4:38 AM 44.6°F 44.6°F 100% 30.48 in 10.0 miles SE 1.2 mph - N/A   Overcast
4:58 AM 45.3°F 45.1°F 99% 30.49 in 10.0 miles SE 3.5 mph - N/A   Overcast
5:23 AM 44.6°F 44.6°F 100% 30.47 in 10.0 miles NNE 4.6 mph - N/A   Overcast
5:28 AM 44.6°F 44.6°F 100% 30.47 in 10.0 miles NNE 3.5 mph - N/A   Overcast
5:33 AM 44.6°F 44.6°F 100% 30.47 in 10.0 miles NNE 4.6 mph - N/A   Overcast
5:48 AM 44.6°F 44.6°F 100% 30.47 in 10.0 miles NNE 4.6 mph - N/A   Overcast
5:53 AM 44.6°F 44.6°F 100% 30.47 in 10.0 miles NNE 6.9 mph - N/A   Overcast
5:58 AM 45.0°F 43.9°F 96% 30.48 in 10.0 miles NNE 4.6 mph - N/A   Overcast
6:03 AM 44.6°F 42.8°F 93% 30.46 in 10.0 miles NNE 3.5 mph - N/A   Overcast
6:18 AM 44.6°F 42.8°F 93% 30.46 in 10.0 miles NNE 2.3 mph - N/A   Overcast
6:23 AM 44.6°F 44.6°F 100% 30.46 in 10.0 miles NNE 2.3 mph - N/A   Overcast
6:58 AM 44.6°F 42.8°F 93% 30.48 in 10.0 miles North 9.2 mph - N/A   Overcast
7:03 AM 44.6°F 42.8°F 93% 30.46 in 10.0 miles North 8.1 mph - N/A   Overcast
7:18 AM 44.6°F 42.8°F 93% 30.46 in 10.0 miles North 5.8 mph - N/A   Overcast
7:53 AM 44.6°F 42.8°F 93% 30.45 in 10.0 miles NNE 4.6 mph - N/A   Overcast
7:56 AM 44.6°F 42.8°F 93% 30.45 in 10.0 miles NNE 5.8 mph - N/A   Overcast
7:58 AM 43.9°F 42.8°F 96% 30.47 in 10.0 miles NNE 5.8 mph - N/A   Overcast
8:23 AM 44.6°F 42.8°F 93% 30.45 in 10.0 miles NNE 5.8 mph - N/A   Overcast
8:24 AM 44.6°F 42.8°F 93% 30.45 in 10.0 miles NNE 6.9 mph - N/A   Overcast
8:34 AM 44.6°F 42.8°F 93% 30.45 in 10.0 miles North 4.6 mph - N/A   Overcast
8:39 AM 44.6°F 42.8°F 93% 30.45 in 10.0 miles North 4.6 mph - N/A   Overcast
8:58 AM 44.2°F 42.4°F 93% 30.46 in 10.0 miles North 4.6 mph - N/A   Overcast
9:13 AM 44.6°F 42.8°F 93% 30.44 in 10.0 miles North 5.8 mph - N/A   Overcast
9:58 AM 43.3°F 41.7°F 94% 30.45 in 10.0 miles North 8.1 mph - N/A   Overcast
10:18 AM 44.6°F 41.0°F 87% 30.43 in 10.0 miles NNE 4.6 mph - N/A   Overcast
10:58 AM 45.7°F 41.7°F 86% 30.44 in 10.0 miles NNE 3.5 mph - N/A   Scattered Clouds
11:28 AM 48.2°F 42.8°F 82% 30.41 in 10.0 miles North 4.6 mph - N/A   Mostly Cloudy
11:58 AM 49.1°F 42.1°F 77% 30.41 in 10.0 miles NE 2.3 mph - N/A   Mostly Cloudy
12:08 PM 50.0°F 42.8°F 76% 30.39 in 10.0 miles NE 1.2 mph - N/A   Scattered Clouds
12:58 PM 50.5°F 41.4°F 71% 30.38 in 10.0 miles North 3.5 mph - N/A   Clear
1:58 PM 52.3°F 41.9°F 68% 30.34 in 10.0 miles NNE 1.2 mph - N/A   Clear
2:58 PM 53.2°F 41.7°F 65% 30.31 in 10.0 miles NE 3.5 mph - N/A   Clear
3:58 PM 53.4°F 42.1°F 65% 30.29 in 10.0 miles North 5.8 mph - N/A   Clear
4:58 PM 52.3°F 42.1°F 68% 30.26 in 10.0 miles North 3.5 mph - N/A   Clear
5:58 PM 49.1°F 42.3°F 77% 30.24 in 10.0 miles North 2.3 mph - N/A   Clear
6:58 PM 45.1°F 41.9°F 88% 30.24 in 10.0 miles North 1.2 mph - N/A   Clear
7:58 PM 42.4°F 40.1°F 91% 30.24 in 10.0 miles North 2.3 mph - N/A   Clear
8:58 PM 39.2°F 38.3°F 97% 30.24 in 10.0 miles Calm Calm - N/A   Clear
9:58 PM 39.6°F 39.2°F 99% 30.23 in 10.0 miles Calm Calm - N/A   Clear
10:13 PM 37.4°F 37.4°F 100% 30.20 in 5.0 miles North 2.3 mph - N/A   Clear
10:18 PM 37.4°F 35.6°F 93% 30.20 in 3.0 miles North 2.3 mph - N/A   Clear
10:23 PM 37.4°F 37.4°F 100% 30.20 in 4.0 miles North 2.3 mph - N/A   Clear
10:28 PM 37.4°F 37.4°F 100% 30.20 in 10.0 miles North 2.3 mph - N/A   Clear
10:38 PM 37.4°F 37.4°F 100% 30.20 in 7.0 miles North 2.3 mph - N/A   Clear
10:58 PM 37.6°F 37.4°F 99% 30.22 in 10.0 miles Calm Calm - N/A   Clear
11:58 PM 36.5°F 36.3°F 99% 30.19 in 10.0 miles Calm Calm - N/A   Clear
Moon Phase
Feb. 15 Feb. 17 Feb. 25 Mar. 04 Mar. 11
Sunrise:07:14 AM (PST) Moon Rise:09:27 AM (PST)2/15
Sunset:05:35 PM (PST) Moon Set:No Moon Set/

Copyright © 2014 The Weather Underground, Inc.